{"data":{"norad_id":58836,"intl_designator":"2024-017L","name":"STARLINK-31251","alt_names":[],"object_type":"PAYLOAD","status":"ACTIVE","operator":null,"country":"US","launch_date":"2024-01-24","launch_site_code":"AFWTR","launch_vehicle":null,"mission":null,"orbit_class":"UNKNOWN","rcs_meters":null,"size_class":null,"mass_kg":null,"dimensions":null,"purposes":["comms"],"wikipedia_slug":null,"has_3d_model":false,"image_url":null,"decayed_at":null,"tle_current":{"epoch":"2026-05-25T03:44:16.578816Z","epoch_age_seconds":61550,"freshness":"FRESH","line1":"1 58836U 24017L   26145.15574744  .00000651  00000+0  34117-4 0  9990","line2":"2 58836  53.1599 209.1315 0000991  95.6028 264.5086 15.30192165131878","mean_motion":15.30192165,"eccentricity":9.91e-5,"inclination_deg":53.1599,"raan_deg":209.1315,"arg_perigee_deg":95.6028,"mean_anomaly_deg":264.5086,"bstar":3.4117e-5,"rev_number":13187,"period_min":94.105827551404,"perigee_km":474.55929390845,"apogee_km":475.9176329253,"semimajor_km":6853.3754634169,"source":"CELESTRAK","updated_at":"2026-05-25T13:38:18.754864Z"}}}